Weather History for Land O' Lakes, WI

Change the Weather History Date:

Saturday, March 22, 2014

  Actual Average (KEGV) Record (KEGV)
Temperature  
Mean Temperature 14 °F -  
Max Temperature 30 °F 38 °F 57 °F (2012)
Min Temperature -1 °F 16 °F -13 °F (2004)
Degree Days  
Heating Degree Days 50    
Moisture  
Dew Point 9 °F    
Average Humidity 77    
Maximum Humidity 94    
Minimum Humidity 59    
Precipitation  
Precipitation 0.00 in - - ()
Sea Level Pressure  
Sea Level Pressure 30.14 in    
Wind  
Wind Speed 10 mph (NW)    
Max Wind Speed 20 mph    
Max Gust Speed 25 mph    
Visibility 5 miles    
Events Snow    
Averages and records for this station are not official NWS values.
T = Trace of Precipitation, MM = Missing Value Source: NWS Daily Summary

Daily Weather History Graph

Daily Weather History Graph

Search for Another Location

Airport:

Trip Planner

Search our weather history database for the weather conditions in past years. The results will help you decide how hot, cold, wet, or windy it might be!

Date:

Astronomy

Mar. 22, 2014 Rise Set
Actual Time 6:55 AM CDT 7:12 PM CDT
Civil Twilight 6:26 AM CDT 7:42 PM CDT
Nautical Twilight 5:50 AM CDT 8:17 PM CDT
Astronomical Twilight 5:14 AM CDT 8:53 PM CDT
Moon 12:47 AM CDT (3/22) 10:23 AM CDT (3/22)
Length of Visible Light 13h 16m
Length of Day
12h 16m
Waning Gibbous, 65% of the Moon is Illuminated
Mar 22
Waning Gibbous
Mar 23
Last Quarter
Mar 30
New
Apr 7
First Quarter
Apr 15
Full

Hourly Weather History & Observations

Time (CDT) Temp. Windchill Dew Point Humidity Pressure Visibility Wind Dir Wind Speed Gust Speed Precip Events Conditions
12:15 AM 30.9 °F 22.8 °F 29.3 °F 94% 29.85 in 10.0 mi NW 9.2 mph - N/A   Overcast
12:35 AM 30.9 °F 23.5 °F 29.1 °F 93% 29.86 in 10.0 mi NW 8.1 mph - N/A Snow Light Snow
12:55 AM 30.6 °F 23.8 °F 28.4 °F 92% 29.87 in 10.0 mi NNW 6.9 mph - N/A Snow Light Snow
1:15 AM 30.2 °F 20.2 °F 27.9 °F 91% 29.87 in 7.0 mi NNW 12.7 mph 19.6 mph N/A   Overcast
1:35 AM 30.0 °F 23.2 °F 27.5 °F 90% 29.89 in 10.0 mi NW 6.9 mph - N/A Snow Light Snow
1:55 AM 29.3 °F 20.8 °F 27.1 °F 92% 29.90 in 2.5 mi NW 9.2 mph 17.3 mph N/A Snow Light Snow
2:15 AM 28.4 °F 17.0 °F 25.7 °F 90% 29.91 in 7.0 mi NW 15.0 mph 23.0 mph N/A Snow Light Snow
2:35 AM 26.8 °F 15.9 °F 24.1 °F 90% 29.93 in 2.5 mi NNW 12.7 mph 23.0 mph N/A Snow Light Snow
2:55 AM 25.2 °F 11.2 °F 22.3 °F 89% 29.94 in 5.0 mi NW 19.6 mph 24.2 mph N/A Snow Light Snow
3:15 AM 23.9 °F 12.3 °F 20.7 °F 87% 29.95 in 3.0 mi NW 12.7 mph 23.0 mph N/A Snow Light Snow
3:35 AM 22.5 °F 9.4 °F 19.0 °F 87% 29.96 in 4.0 mi NW 15.0 mph 23.0 mph N/A Snow Light Snow
3:55 AM 21.4 °F 9.7 °F 18.0 °F 87% 29.97 in 7.0 mi NNW 11.5 mph 23.0 mph N/A Snow Light Snow
4:15 AM 20.1 °F 10.3 °F 16.5 °F 86% 29.99 in 7.0 mi NW 8.1 mph 21.9 mph N/A Snow Light Snow
4:35 AM 19.4 °F 6.6 °F 15.4 °F 85% 29.99 in 7.0 mi NW 12.7 mph 23.0 mph N/A Snow Light Snow
4:55 AM 18.3 °F 5.2 °F 14.0 °F 83% 30.00 in 5.0 mi WNW 12.7 mph 18.4 mph N/A Snow Light Snow
5:15 AM 16.5 °F 3.0 °F 11.8 °F 82% 30.02 in 7.0 mi NNW 12.7 mph 25.3 mph N/A Snow Light Snow
5:35 AM 15.8 °F 3.4 °F 11.3 °F 82% 30.03 in 10.0 mi NW 10.4 mph 18.4 mph N/A Snow Light Snow
5:55 AM 14.9 °F 0.3 °F 10.4 °F 82% 30.04 in 7.0 mi NW 13.8 mph 18.4 mph N/A Snow Light Snow
6:15 AM 14.5 °F 0.5 °F 9.7 °F 81% 30.05 in 10.0 mi NNW 12.7 mph 17.3 mph N/A Snow Light Snow
6:35 AM 14.4 °F 3.3 °F 8.8 °F 79% 30.06 in 10.0 mi NW 8.1 mph 19.6 mph N/A   Overcast
6:55 AM 14.0 °F 1.2 °F 8.2 °F 78% 30.07 in 10.0 mi NNW 10.4 mph 19.6 mph N/A   Overcast
7:15 AM 14.0 °F -0.2 °F 8.6 °F 79% 30.08 in 5.0 mi NNW 12.7 mph 20.7 mph N/A Snow Light Snow
7:35 AM 13.8 °F 0.2 °F 9.0 °F 81% 30.08 in 3.0 mi NNW 11.5 mph 17.3 mph N/A Snow Light Snow
7:55 AM 13.8 °F -0.5 °F 8.1 °F 78% 30.09 in 7.0 mi NNW 12.7 mph 18.4 mph N/A Snow Light Snow
8:15 AM 13.6 °F -0.7 °F 7.5 °F 77% 30.09 in 7.0 mi NNW 12.7 mph 20.7 mph N/A   Overcast
8:35 AM 13.1 °F -3.1 °F 7.0 °F 77% 30.10 in 4.0 mi NNW 16.1 mph 20.7 mph N/A Snow Light Snow
8:55 AM 13.1 °F 0.1 °F 7.2 °F 77% 30.11 in 2.5 mi NNW 10.4 mph 19.6 mph N/A Snow Light Snow
9:15 AM 14.0 °F 2.9 °F 7.9 °F 77% 30.13 in 1.5 mi NW 8.1 mph 18.4 mph N/A Snow Light Snow
9:35 AM 13.6 °F -2.4 °F 6.8 °F 74% 30.13 in 2.5 mi NNW 16.1 mph 21.9 mph N/A Snow Light Snow
9:55 AM 14.0 °F -0.2 °F 6.4 °F 72% 30.14 in 2.5 mi NNW 12.7 mph 21.9 mph N/A   Haze
10:15 AM 13.8 °F 1.0 °F 6.4 °F 72% 30.15 in 2.5 mi NNW 10.4 mph 23.0 mph N/A Snow Light Snow
10:35 AM 14.4 °F -0.4 °F 5.2 °F 67% 30.15 in 3.0 mi NW 13.8 mph 23.0 mph N/A Snow Light Snow
10:55 AM 14.7 °F 1.4 °F 5.2 °F 66% 30.15 in 7.0 mi NNW 11.5 mph 19.6 mph N/A   Mostly Cloudy
11:15 AM 14.7 °F -2.0 °F 4.6 °F 64% 30.16 in 4.0 mi North 18.4 mph 23.0 mph N/A   Haze
11:35 AM 14.0 °F 0.5 °F 5.0 °F 67% 30.17 in 3.0 mi NNW 11.5 mph 17.3 mph N/A   Haze
11:55 AM 14.9 °F 2.3 °F 5.2 °F 65% 30.17 in 7.0 mi NNW 10.4 mph - N/A   Overcast
12:15 PM 14.0 °F -1.4 °F 5.0 °F 67% 30.18 in 2.5 mi NW 15.0 mph 19.6 mph N/A Snow Light Snow
12:35 PM 14.4 °F -0.4 °F 4.1 °F 64% 30.18 in 3.0 mi NW 13.8 mph 19.6 mph N/A Snow Light Snow
12:55 PM 16.0 °F 3.6 °F 3.7 °F 59% 30.18 in 7.0 mi NW 10.4 mph 24.2 mph N/A   Overcast
1:15 PM 15.6 °F 1.8 °F 4.5 °F 61% 30.18 in 10.0 mi NNW 12.7 mph - N/A   Overcast
1:35 PM 15.3 °F 0.8 °F 4.5 °F 62% 30.18 in 4.0 mi North 13.8 mph 20.7 mph N/A   Haze
1:55 PM 16.0 °F 5.3 °F 6.1 °F 65% 30.19 in 4.0 mi WNW 8.1 mph - N/A   Haze
2:15 PM 15.1 °F 1.1 °F 4.3 °F 62% 30.19 in 5.0 mi NNW 12.7 mph 17.3 mph N/A   Haze
2:35 PM 15.4 °F 3.8 °F 3.6 °F 59% 30.20 in 7.0 mi NW 9.2 mph 16.1 mph N/A   Overcast
2:55 PM 15.4 °F 3.0 °F 5.5 °F 65% 30.20 in 3.0 mi NW 10.4 mph 16.1 mph N/A Snow Light Snow
3:15 PM 14.9 °F 4.0 °F 6.1 °F 68% 30.20 in 2.5 mi NW 8.1 mph 17.3 mph N/A Snow Light Snow
3:35 PM 14.7 °F 1.4 °F 3.6 °F 61% 30.20 in 7.0 mi NW 11.5 mph 16.1 mph N/A   Overcast
3:55 PM 15.4 °F 3.0 °F 4.3 °F 61% 30.21 in 7.0 mi NW 10.4 mph - N/A   Overcast
4:15 PM 13.6 °F 1.6 °F 3.4 °F 64% 30.21 in 7.0 mi NW 9.2 mph 17.3 mph N/A   Overcast
4:35 PM 12.9 °F 2.6 °F 4.3 °F 68% 30.22 in 4.0 mi NW 6.9 mph 20.7 mph N/A   Haze
4:55 PM 13.5 °F -0.2 °F 3.0 °F 63% 30.22 in 7.0 mi NW 11.5 mph 19.6 mph N/A   Overcast
5:15 PM 13.3 °F -0.5 °F 3.0 °F 64% 30.23 in 7.0 mi NW 11.5 mph 16.1 mph N/A   Overcast
5:35 PM 13.5 °F 4.4 °F 3.0 °F 63% 30.23 in 10.0 mi WNW 5.8 mph - N/A   Overcast
5:55 PM 14.2 °F 4.1 °F 3.0 °F 61% 30.23 in 7.0 mi WNW 6.9 mph - N/A   Overcast
6:15 PM 13.3 °F 2.0 °F 4.3 °F 67% 30.24 in 7.0 mi NNW 8.1 mph - N/A   Overcast
6:35 PM 12.0 °F -0.4 °F 5.9 °F 76% 30.24 in 1.2 mi NW 9.2 mph - N/A Snow Light Snow
6:55 PM 11.3 °F 3.3 °F 4.8 °F 75% 30.25 in 4.0 mi NW 4.6 mph - N/A   Haze
7:15 PM 11.1 °F 3.1 °F 4.8 °F 76% 30.25 in 5.0 mi NW 4.6 mph - N/A   Haze
7:35 PM 10.8 °F 4.5 °F 5.4 °F 79% 30.26 in 2.5 mi WNW 3.5 mph - N/A Snow Light Snow
7:55 PM 10.8 °F 4.5 °F 5.5 °F 79% 30.27 in 3.0 mi WNW 3.5 mph - N/A Snow Light Snow
8:15 PM 10.4 °F 4.0 °F 5.9 °F 82% 30.28 in 2.5 mi WNW 3.5 mph - N/A Snow Light Snow
8:35 PM 9.3 °F 2.8 °F 5.4 °F 84% 30.29 in 2.0 mi WNW 3.5 mph - N/A Snow Light Snow
8:55 PM 9.1 °F 2.6 °F 5.0 °F 83% 30.29 in 2.0 mi WNW 3.5 mph - N/A Snow Light Snow
9:15 PM 8.8 °F 0.4 °F 5.0 °F 85% 30.29 in 2.0 mi WNW 4.6 mph - N/A Snow Light Snow
9:35 PM 8.6 °F 2.0 °F 5.0 °F 85% 30.29 in 1.0 mi West 3.5 mph - N/A Snow Snow
9:55 PM 7.9 °F 1.2 °F 4.3 °F 85% 30.29 in 2.0 mi West 3.5 mph - N/A Snow Light Snow
10:15 PM 6.3 °F -0.7 °F 3.0 °F 87% 30.30 in 3.0 mi West 3.5 mph - N/A Snow Light Snow
10:35 PM 4.1 °F - 0.9 °F 86% 30.30 in 4.0 mi Calm Calm - N/A Snow Light Snow
10:55 PM -0.6 °F -8.5 °F -4.0 °F 85% 30.30 in 3.0 mi West 3.5 mph - N/A Snow Light Snow
11:15 PM -1.7 °F -9.7 °F -5.4 °F 84% 30.31 in 2.5 mi West 3.5 mph - N/A Snow Light Snow
11:35 PM 0.5 °F -7.3 °F -2.4 °F 88% 30.31 in 2.0 mi West 3.5 mph - N/A Snow Light Snow
11:55 PM -0.9 °F - -4.2 °F 86% 30.31 in 1.8 mi Calm Calm - N/A Snow Light Snow